This is the latest recevied weather packets stored in our database for station/object N5SRF. If no packets are shown the sender has not sent any weather packets the latest 1 day(s).
| Time | Temp. | Humidity | Pressure | Rain* | Wind** | Luminosity | Snow |
|---|---|---|---|---|---|---|---|
| 1778006527 | 27.22° C | 82% | 1012.9 hPa | 0 mm | 1.34 m/s, 139° | 202 W/m² | - |
| 1778006223 | 27.22° C | 83% | 1013 hPa | 0 mm | 1.34 m/s, 227° | 272 W/m² | - |
| 1778005920 | 27.22° C | 82% | 1012.9 hPa | 0 mm | 0.89 m/s, 191° | 249 W/m² | - |
| 1778005616 | 27.78° C | 82% | 1013 hPa | 0 mm | 1.79 m/s, 166° | 365 W/m² | - |
| 1778005313 | 27.22° C | 83% | 1012.9 hPa | 0 mm | 2.24 m/s, 156° | 394 W/m² | - |
| 1778005004 | 27.22° C | 84% | 1013.1 hPa | 0 mm | 0.45 m/s, 181° | 302 W/m² | - |
| 1778004702 | 26.67° C | 84% | 1013.1 hPa | 0 mm | 0.45 m/s, 119° | 251 W/m² | - |
| 1778004398 | 27.22° C | 83% | 1013.2 hPa | 0 mm | 1.34 m/s, 168° | 280 W/m² | - |
| 1778004096 | 26.67° C | 84% | 1013.1 hPa | 0 mm | 0.89 m/s, 170° | 222 W/m² | - |
| 1778003791 | 26.67° C | 84% | 1013.1 hPa | 0 mm | 1.34 m/s, 190° | 215 W/m² | - |
| 1778003488 | 26.67° C | 84% | 1013 hPa | 0 mm | 0.89 m/s, 153° | 274 W/m² | - |
| 1778003185 | 27.22° C | 83% | 1013.3 hPa | 0 mm | 1.34 m/s, 216° | 173 W/m² | - |
| 1778002881 | 27.22° C | 83% | 1013.3 hPa | 0 mm | 0.89 m/s, 156° | 273 W/m² | - |
| 1778002577 | 27.22° C | 83% | 1013.2 hPa | 0 mm | 1.34 m/s, 186° | 234 W/m² | - |
| 1778002274 | 26.67° C | 85% | 1013.1 hPa | 0 mm | 0.45 m/s, 191° | 304 W/m² | - |
| 1778001971 | 26.67° C | 84% | 1013.3 hPa | 0 mm | 1.34 m/s, 146° | 276 W/m² | - |
| 1778001668 | 26.11° C | 86% | 1013.2 hPa | 0 mm | 1.79 m/s, 136° | 328 W/m² | - |
| 1778001362 | 25.56° C | 88% | 1013.2 hPa | 0 mm | 0.45 m/s, 178° | 283 W/m² | - |
| 1778001060 | 25° C | 89% | 1013.3 hPa | 0 mm | 0.89 m/s, 136° | 307 W/m² | - |
| 1778000756 | 25° C | 89% | 1013.5 hPa | 0 mm | 0.89 m/s, 111° | 133 W/m² | - |
| 1778000453 | 25.56° C | 88% | 1013.4 hPa | 0 mm | 0.45 m/s, 155° | 93 W/m² | - |
| 1778000148 | 25.56° C | 87% | 1013.6 hPa | 0 mm | 1.34 m/s, 185° | 96 W/m² | - |
| 1777999844 | 25.56° C | 87% | 1013.3 hPa | 0 mm | 0.45 m/s, 108° | 99 W/m² | - |
| 1777999540 | 25.56° C | 87% | 1013.4 hPa | 0 mm | 0.89 m/s, 216° | 147 W/m² | - |
| 1777999238 | 25.56° C | 88% | 1013.3 hPa | 0 mm | 0.89 m/s, 266° | 150 W/m² | - |
* Rain latest hour (hover to see other rain measurements)
** Current wind speed in m/s (hover to see current wind gust speed)